Location: Unspecified
(38.9820°N, 94.4650°W)
Time: 05:19:45
(UTC-05:00)

Resurs 1-4 Rocket - Visible Passes

Search period start: 30 June 2016 00:00
Search period end: 10 July 2016 00:00
Orbit: 801 x 813 km, 98.4° (Epoch: 29 June)

Date Brightness Start Highest point End Pass type
(mag) Time Alt. Az. Time Alt. Az. Time Alt. Az.
30 Jun 3.6 03:20:01 10° NE 03:24:36 29° E 03:27:59 16° SSE visible
30 Jun 3.0 04:59:42 10° N 05:04:25 33° WNW 05:09:04 10° SW visible
01 Jul 4.3 02:56:27 10° NE 02:59:51 17° E 03:03:07 10° SE visible
01 Jul 2.3 04:34:50 10° N 04:40:01 55° WNW 04:44:12 16° SW visible
02 Jul 2.1 04:10:12 10° NNE 04:15:32 88° ESE 04:19:20 20° SSW visible
03 Jul 2.7 03:45:48 10° NNE 03:50:59 52° E 03:54:27 20° S visible
03 Jul 3.7 05:26:40 10° NNW 05:30:24 20° WNW 05:34:05 10° WSW visible
04 Jul 3.6 03:21:41 10° NE 03:26:19 30° E 03:29:35 17° SSE visible
04 Jul 3.1 05:01:28 10° N 05:06:06 32° WNW 05:10:40 10° SW visible
05 Jul 4.3 02:58:03 10° NE 03:01:35 18° E 03:04:42 11° SE visible
05 Jul 2.4 04:36:34 10° N 04:41:43 53° WNW 04:45:47 16° SW visible
06 Jul 2.1 04:11:55 10° NNE 04:17:15 89° WNW 04:20:54 21° SSW visible
07 Jul 2.6 03:47:29 10° NNE 03:52:41 54° E 03:56:02 22° S visible
08 Jul 3.5 03:23:21 10° NE 03:28:03 32° E 03:31:09 18° SSE visible
08 Jul 3.1 05:03:13 10° N 05:07:47 30° WNW 05:12:14 11° SW visible
09 Jul 4.2 02:59:40 10° NE 03:03:19 19° E 03:06:16 12° SE visible
09 Jul 2.4 04:38:19 10° N 04:43:25 50° WNW 04:47:21 17° SW visible
